Location: Fort Wayne
(41.1310°N, 85.1290°W)
Time: 02:06:32
(UTC-04:00)

Iridium 37 - Visible Passes

Search period start: 23 March 2017 00:00
Search period end: 02 April 2017 00:00
Orbit: 776 x 779 km, 86.4° (Epoch: 21 March)

Date Brightness Start Highest point End Pass type
(mag) Time Alt. Az. Time Alt. Az. Time Alt. Az.
26 Mar 8.4 00:16:48 10° N 00:16:52 10° N 00:16:52 10° N visible
28 Mar 8.4 00:50:23 10° N 00:50:45 12° NNW 00:50:45 12° NNW visible
29 Mar 8.2 00:16:47 10° N 00:17:28 14° N 00:17:28 14° N visible
29 Mar 8.0 23:43:28 10° NNE 23:44:11 14° NNE 23:44:11 14° NNE visible
30 Mar 8.0 23:10:34 10° NNE 23:10:55 11° NNE 23:10:55 11° NNE visible
31 Mar 8.3 00:50:39 10° NNW 00:51:24 14° NNW 00:51:24 14° NNW visible
01 Apr 8.0 00:16:52 10° N 00:18:08 18° N 00:18:08 18° N visible
01 Apr 7.7 23:43:23 10° N 23:44:53 19° N 23:44:53 19° N visible
